Flag for Chad Weather past 2 weeks in Moundou, Chad

Now
73 °F

Clear.


Feels Like: 77 °F
Forecast: 76 / 100 °F
Wind: No wind

Location: Ndjamena

Current Time: Mar 30, 2015 at 5:31:32 AM

Latest Report: Mar 30, 2015 at 4:00 AM


Visibility: 10 mi

Pressure: 29.86 "Hg

Humidity: 47%

Dew point: 52 °F

Location of MoundouLocation

Historic Weather in Moundou — Graph

°F

Moundou temperature yesterday

Maximum temperature yesterday: 97 °F (at 1:00 PM)
Minimum temperature yesterday: 75 °F (at 6:00 AM)
Average temperature yesterday: 85 °F

Past Weeks' High & Low Weather Summary

 TemperatureHumidityPressure
High109 °F (Mar 24, 3:00 PM)59% (Mar 26, 8:00 AM)30.09 "Hg (Mar 26, 8:00 AM)
Low64 °F (Mar 16, 4:00 PM)9% (Mar 22, 1:00 PM)29.62 "Hg (Mar 24, 3:00 PM)
Average91 °F25%29.75 "Hg
* Reported Mar 15 4:00 AM — Mar 30 4:00 AM, Moundou, Weather by CustomWeather, © 2015

Note: Actual official high and low records may vary slightly from our data, if they occured in-between our weather recording intervals... More about our weather records

Advertising

Moundou weather history for previous 24 hours

 ConditionsComfort  
Time TempWeatherWind HumidityBarometerVisibility
4:00 AM
Mon, Mar 30
73 °FClear.No wind47%29.86 "Hg10 mi
3:00 AM75 °FClear.No wind44%29.86 "Hg10 mi
2:00 AM75 °FClear.No wind44%29.86 "Hg10 mi
1:00 AM77 °FClear.No wind39%29.86 "Hg10 mi
12:00 AM79 °FClear.No wind37%29.86 "Hg5 mi
11:00 PM
Sun, Mar 29
79 °FClear.No wind37%29.86 "Hg5 mi
10:00 PM81 °FClear.7 mph32%29.86 "Hg5 mi
9:00 PM84 °FClear.3 mph27%29.86 "Hg5 mi
8:00 PM86 °FClear.7 mph24%29.83 "Hg5 mi
7:00 PM88 °FClear.10 mph22%29.80 "Hg4 mi
6:00 PM91 °FClear.10 mph18%29.77 "Hg4 mi
5:00 PM93 °FClear.8 mph19%29.77 "Hg4 mi
4:00 PM97 °FClear.9 mph17%29.77 "Hg4 mi
3:00 PM97 °FClear.7 mph17%29.77 "Hg4 mi
2:00 PM97 °FClear.7 mph17%29.80 "Hg4 mi
1:00 PM97 °FClear.5 mph16%29.83 "Hg4 mi
10:00 AM88 °FHaze.14 mph21%29.89 "Hg3 mi
9:00 AM84 °FHaze.14 mph23%29.89 "Hg2 mi
8:00 AM81 °FHaze.12 mph24%29.89 "Hg2 mi
7:00 AM77 °FHaze.9 mph28%29.86 "Hg2 mi
6:00 AM75 °FClear.8 mph31%29.83 "Hg4 mi
5:00 AM77 °FClear.8 mph34%29.83 "Hg5 mi
Weather by CustomWeather, © 2015

See weather overviewHow to use our weather pages